When you browse on this site, cookies collect data to enhance your experience and personalize the content and advertising you see.
Visit our Privacy Policy to learn more. By continuing to use the site, you agree to this use of cookies and data.
  • In Schweiz
  • Länderverzeichnis
  • Für 7 Tage
  • Wassertemperatur
  • Satellitenkarten
  • Wetterkarte
  • Widgets
  • user-avatar
    Anmelden

    Stündliche Wetter Ososhniki

    Heute, 17 November, Samstag

    Zeit Temperatur Niederschläge Wind Luftdruck Luftfeuchtigkeit
    00:00 -2°C° 0 mm 2 m/S 765 mmHg 75%
    01:00 -2°C° 0 mm 2 m/S 765 mmHg 72%
    02:00 -2°C° 0 mm 2 m/S 766 mmHg 69%
    03:00 -2°C° 0 mm 2 m/S 765 mmHg 67%
    04:00 -2°C° 0 mm 2 m/S 765 mmHg 65%
    05:00 -2°C° 0 mm 2 m/S 765 mmHg 62%
    06:00 -2°C° 0 mm 2 m/S 765 mmHg 60%
    07:00 -2°C° 0 mm 2 m/S 765 mmHg 58%
    08:00 -3°C° 0 mm 2 m/S 765 mmHg 56%
    09:00 -1°C° 0 mm 2 m/S 765 mmHg 51%
    10:00 +1°C° 0 mm 2 m/S 765 mmHg 46%
    11:00 +2°C° 0 mm 2 m/S 765 mmHg 41%
    12:00 +2°C° 0 mm 2 m/S 765 mmHg 39%
    13:00 +3°C° 0 mm 2 m/S 764 mmHg 38%
    14:00 +3°C° 0 mm 2 m/S 764 mmHg 36%
    15:00 +3°C° 0 mm 1 m/S 763 mmHg 40%
    16:00 +2°C° 0 mm 1 m/S 763 mmHg 44%
    17:00 +1°C° 0 mm 1 m/S 762 mmHg 48%
    18:00 +1°C° 0 mm 1 m/S 762 mmHg 48%
    19:00 +1°C° 0 mm 1 m/S 762 mmHg 47%
    20:00 +1°C° 0 mm 1 m/S 762 mmHg 47%
    21:00 +1°C° 0 mm 1 m/S 761 mmHg 47%
    22:00 +1°C° 0 mm 1 m/S 761 mmHg 47%
    23:00 +1°C° 0 mm 1 m/S 761 mmHg 47%

    Morgen, 18 November, Sonntag

    Zeit Temperatur Niederschläge Wind Luftdruck Luftfeuchtigkeit
    00:00 +1°C° 0 mm 1 m/S 760 mmHg 48%
    01:00 +1°C° 0 mm 1 m/S 760 mmHg 49%
    02:00 -2°C° 0 mm 2 m/S 759 mmHg 50%
    03:00 -2°C° 0 mm 2 m/S 758 mmHg 53%
    04:00 -2°C° 0 mm 2 m/S 757 mmHg 56%
    05:00 -2°C° 0 mm 2 m/S 757 mmHg 59%
    06:00 -1°C° 0 mm 2 m/S 756 mmHg 64%
    07:00 -1°C° 0 mm 2 m/S 755 mmHg 68%
    08:00 +1°C° 0 mm 2 m/S 755 mmHg 73%
    09:00 +1°C° 0.2 mm 2 m/S 754 mmHg 77%
    10:00 +1°C° 0.2 mm 2 m/S 754 mmHg 82%
    11:00 +2°C° 0.2 mm 2 m/S 754 mmHg 87%
    12:00 +2°C° 0.1 mm 2 m/S 753 mmHg 88%
    13:00 +2°C° 0.1 mm 2 m/S 753 mmHg 88%
    14:00 +4°C° 0.1 mm 1 m/S 753 mmHg 89%
    15:00 +2°C° 0.1 mm 2 m/S 753 mmHg 91%
    16:00 +2°C° 0.1 mm 2 m/S 753 mmHg 93%
    17:00 +2°C° 0.1 mm 2 m/S 752 mmHg 95%
    18:00 +2°C° 0 mm 2 m/S 752 mmHg 95%
    19:00 +2°C° 0 mm 2 m/S 752 mmHg 95%
    20:00 +1°C° 0 mm 2 m/S 752 mmHg 95%
    21:00 +1°C° 0 mm 2 m/S 752 mmHg 95%
    22:00 +1°C° 0 mm 2 m/S 752 mmHg 96%
    23:00 +1°C° 0 mm 2 m/S 752 mmHg 96%

    übermorgen, 19 November, Montag

    Zeit Temperatur Niederschläge Wind Luftdruck Luftfeuchtigkeit
    00:00 +1°C° 0 mm 2 m/S 752 mmHg 96%
    01:00 +1°C° 0 mm 2 m/S 752 mmHg 96%
    02:00 +1°C° 0 mm 2 m/S 752 mmHg 96%
    03:00 +1°C° 0 mm 2 m/S 752 mmHg 96%
    04:00 +1°C° 0 mm 2 m/S 752 mmHg 96%
    05:00 +1°C° 0 mm 2 m/S 752 mmHg 96%
    06:00 +1°C° 0 mm 2 m/S 752 mmHg 96%
    07:00 +1°C° 0 mm 2 m/S 752 mmHg 96%
    08:00 +1°C° 0 mm 2 m/S 752 mmHg 96%
    09:00 0°C° 0 mm 3 m/S 753 mmHg 93%
    10:00 +1°C° 0 mm 3 m/S 753 mmHg 90%
    11:00 0°C° 0 mm 4 m/S 753 mmHg 87%
    12:00 +1°C° 0 mm 4 m/S 754 mmHg 86%
    13:00 +1°C° 0 mm 4 m/S 754 mmHg 84%
    14:00 +1°C° 0 mm 4 m/S 754 mmHg 83%
    15:00 0°C° 0 mm 4 m/S 754 mmHg 84%
    16:00 0°C° 0 mm 4 m/S 754 mmHg 85%
    17:00 0°C° 0 mm 4 m/S 754 mmHg 86%
    18:00 -1°C° 0 mm 4 m/S 754 mmHg 86%
    19:00 -1°C° 0 mm 4 m/S 754 mmHg 86%
    20:00 -1°C° 0 mm 5 m/S 754 mmHg 86%
    21:00 -1°C° 0 mm 4 m/S 755 mmHg 85%
    22:00 -1°C° 0 mm 4 m/S 755 mmHg 84%
    23:00 -1°C° 0 mm 4 m/S 756 mmHg 84%

    20 November, Dienstag

    Zeit Temperatur Niederschläge Wind Luftdruck Luftfeuchtigkeit
    00:00 -1°C° 0 mm 4 m/S 756 mmHg 84%
    01:00 -2°C° 0 mm 4 m/S 756 mmHg 85%
    02:00 -1°C° 0 mm 3 m/S 756 mmHg 86%
    03:00 -1°C° 0 mm 3 m/S 756 mmHg 86%
    04:00 -1°C° 0 mm 3 m/S 756 mmHg 87%
    05:00 -2°C° 0 mm 3 m/S 755 mmHg 87%
    06:00 -2°C° 0 mm 3 m/S 755 mmHg 88%
    07:00 -2°C° 0 mm 3 m/S 755 mmHg 89%
    08:00 -2°C° 0 mm 3 m/S 755 mmHg 90%
    09:00 -2°C° 0 mm 4 m/S 755 mmHg 86%
    10:00 -2°C° 0 mm 4 m/S 755 mmHg 83%
    11:00 -1°C° 0 mm 5 m/S 755 mmHg 79%
    12:00 -1°C° 0 mm 4 m/S 755 mmHg 77%
    13:00 0°C° 0 mm 4 m/S 755 mmHg 75%
    14:00 0°C° 0 mm 4 m/S 755 mmHg 74%
    15:00 -1°C° 0 mm 4 m/S 755 mmHg 78%
    16:00 -1°C° 0 mm 3 m/S 754 mmHg 82%
    17:00 -1°C° 0 mm 3 m/S 754 mmHg 86%
    18:00 -3°C° 0 mm 4 m/S 754 mmHg 86%
    19:00 -3°C° 0 mm 4 m/S 754 mmHg 87%
    20:00 -3°C° 0 mm 4 m/S 754 mmHg 88%
    21:00 -3°C° 0 mm 4 m/S 753 mmHg 87%
    22:00 -3°C° 0 mm 4 m/S 753 mmHg 87%
    23:00 -3°C° 0 mm 4 m/S 753 mmHg 87%

    21 November, Mittwoch

    Zeit Temperatur Niederschläge Wind Luftdruck Luftfeuchtigkeit
    00:00 -4°C° 0 mm 4 m/S 753 mmHg 87%
    01:00 -4°C° 0 mm 4 m/S 753 mmHg 88%
    02:00 -4°C° 0 mm 4 m/S 753 mmHg 88%
    03:00 -4°C° 0 mm 4 m/S 752 mmHg 88%
    04:00 -4°C° 0 mm 4 m/S 752 mmHg 87%
    05:00 -5°C° 0 mm 5 m/S 752 mmHg 87%
    06:00 -5°C° 0 mm 5 m/S 752 mmHg 86%
    07:00 -5°C° 0 mm 5 m/S 752 mmHg 86%
    08:00 -5°C° 0 mm 5 m/S 752 mmHg 85%
    09:00 -4°C° 0 mm 5 m/S 752 mmHg 81%
    10:00 -4°C° 0 mm 5 m/S 752 mmHg 78%
    11:00 -2°C° 0 mm 5 m/S 752 mmHg 75%
    12:00 -2°C° 0 mm 5 m/S 752 mmHg 74%
    13:00 -1°C° 0 mm 5 m/S 752 mmHg 73%
    14:00 -1°C° 0 mm 5 m/S 752 mmHg 71%
    15:00 -1°C° 0 mm 5 m/S 752 mmHg 74%
    16:00 -2°C° 0 mm 5 m/S 752 mmHg 77%
    17:00 -3°C° 0 mm 4 m/S 752 mmHg 80%
    18:00 -3°C° 0 mm 4 m/S 752 mmHg 81%
    19:00 -3°C° 0 mm 4 m/S 753 mmHg 82%
    20:00 -3°C° 0 mm 4 m/S 753 mmHg 83%
    21:00 -3°C° 0 mm 4 m/S 753 mmHg 83%
    22:00 -3°C° 0 mm 4 m/S 753 mmHg 84%
    23:00 -4°C° 0 mm 4 m/S 754 mmHg 84%

    22 November, Donnerstag

    Zeit Temperatur Niederschläge Wind Luftdruck Luftfeuchtigkeit
    00:00 -4°C° 0 mm 4 m/S 754 mmHg 85%
    01:00 -4°C° 0 mm 4 m/S 754 mmHg 85%
    02:00 -4°C° 0 mm 4 m/S 754 mmHg 86%
    03:00 -4°C° 0 mm 4 m/S 754 mmHg 86%
    04:00 -4°C° 0 mm 4 m/S 754 mmHg 86%
    05:00 -4°C° 0 mm 4 m/S 754 mmHg 85%
    06:00 -4°C° 0 mm 4 m/S 755 mmHg 85%
    07:00 -4°C° 0 mm 3 m/S 755 mmHg 86%
    08:00 -4°C° 0 mm 3 m/S 755 mmHg 86%
    09:00 -4°C° 0 mm 3 m/S 755 mmHg 82%
    10:00 -2°C° 0 mm 3 m/S 756 mmHg 79%
    11:00 -2°C° 0 mm 3 m/S 756 mmHg 75%
    12:00 -1°C° 0 mm 3 m/S 756 mmHg 73%
    13:00 -1°C° 0 mm 3 m/S 756 mmHg 71%
    14:00 0°C° 0 mm 3 m/S 756 mmHg 69%
    15:00 -1°C° 0 mm 3 m/S 756 mmHg 73%
    16:00 -2°C° 0 mm 2 m/S 756 mmHg 78%
    17:00 -3°C° 0 mm 2 m/S 756 mmHg 82%
    18:00 -3°C° 0 mm 2 m/S 756 mmHg 82%
    19:00 -3°C° 0 mm 2 m/S 756 mmHg 83%
    20:00 -4°C° 0 mm 2 m/S 757 mmHg 83%
    21:00 -4°C° 0 mm 2 m/S 757 mmHg 83%
    22:00 -4°C° 0 mm 2 m/S 757 mmHg 82%
    23:00 -4°C° 0 mm 2 m/S 757 mmHg 82%
    Mehr zeigen